Tracking 23731 objects as of 26-Sep-2021
HD Live streaming from Space Station
objects crossing your sky now

ITALSAT 1

Track ITALSAT 1 now!
ITALSAT 1 is classified as:


NORAD ID: 21055
Int'l Code: 1991-003A
Perigee: 35,818.0 km
Apogee: 35,937.7 km
Inclination: 14.9 °
Period: 1,440.4 minutes
Semi major axis: 42248 km
RCS: 3.4358 m2 (large)
Launch date: January 15, 1991
Source: Italy (IT)
Launch site: FRENCH GUIANA (FRGUI)
aabbcc
Your satellite tracking list
Your tracking list is empty




NASA's NSSDC Master Catalog

Two Line Element Set (TLE):
1 21055U 91003A   21268.39549765 -.00000281  00000-0  00000+0 0  9994
2 21055  14.9135   4.9983 0014176  29.6650  77.7168  0.99972512 99938
Source of the keplerian elements: AFSPC